EW4557 Weather Reports


Display with metric or nautical units.
time (UTC)temp
F
wind
direction
speed
MPH
gust
MPH
rain 1hr
in
rain 24hr
in
rain mn
in
humidity
%
barometer
mb
20260906125637 66 0.0 0.0 0.00 0.09 0.00 86 1016.4
20260906123557 66 0.0 0.0 0.00 0.09 0.00 85 1016.2
20260906122517 66 0.0 0.0 0.00 0.09 0.00 86 1017.5
20260906121516 66 0.0 0.0 0.00 0.09 0.00 85 1018.3
20260906115637 66 0.0 0.0 0.00 0.09 0.00 86 1018.3
20260906114557 66 0.0 0.0 0.00 0.09 0.00 86 1018.3
20260906113516 66 0.0 0.0 0.00 0.09 0.00 86 1018.6
20260906112516 66 0.0 0.0 0.00 0.09 0.00 85 1018.7
20260906111516 66 0.0 0.0 0.00 0.09 0.00 85 1018.6
20260906110556 66 0.0 0.0 0.00 0.09 0.00 85 1018.3
20260906105516 66 0.0 0.0 0.00 0.09 0.00 84 1018.2
20260906104516 66 0.0 0.0 0.00 0.09 0.00 85 1018.4
20260906103516 66 0.0 0.0 0.00 0.09 0.00 85 1018.4
20260906102556 66 0.0 0.0 0.00 0.09 0.00 84 1018.2
20260906101556 66 0.0 0.0 0.00 0.09 0.00 84 1018.2
20260906095636 66 0.0 0.0 0.00 0.09 0.00 84 1018.2
20260906094516 66 0.0 0.0 0.00 0.09 0.00 83 1018.4
20260906093516 66 0.0 0.0 0.00 0.09 0.00 82 1018.4
20260906092516 67 0.0 0.0 0.00 0.09 0.00 83 1018.5
20260906091556 67 0.0 0.0 0.00 0.09 0.00 82 1018.5
20260906090516 67 0.0 0.0 0.00 0.09 0.00 80 1018.5
20260906085636 68 0.0 0.0 0.00 0.09 0.00 81 1018.8
20260906083516 68 0.0 0.0 0.00 0.09 0.00 81 1018.3
20260906082556 68 0.0 0.0 0.00 0.09 0.00 80 1018.4
20260906081556 68 0.0 0.0 0.00 0.09 0.00 80 1018.4
20260906080556 69 0.0 0.0 0.00 0.09 0.00 81 1018.3
20260906075516 69 0.0 0.0 0.00 0.09 0.00 79 1018.4
20260906074516 69 0.0 0.0 0.00 0.09 0.00 78 1018.5
20260906073556 69 0.0 0.0 0.00 0.09 0.00 78 1018.4
20260906072556 70 0.0 0.0 0.00 0.09 0.00 77 1018.4
20260906070636 70 0.0 0.0 0.00 0.09 0.00 75 1018.4
20260906065556 71 0.0 0.0 0.00 0.09 0.00 75 1018.4
20260906063636 73 0.0 0.0 0.00 0.09 0.00 70 1018.9
20260906062636 74 0.0 0.0 0.00 0.09 0.00 68 1018.9
20260906060556 75 0.0 1.0 0.00 0.09 0.00 64 1018.7
20260906055515 75 0 0.0 3.0 0.00 0.09 0.09 64 1018.7
20260906054515 75 0.0 2.0 0.00 0.09 0.09 64 1018.8
20260906053635 76 0 1.0 3.0 0.00 0.09 0.09 64 1018.7
20260906051515 77 0.0 2.0 0.00 0.09 0.09 61 1018.7
20260906050515 78 0 1.0 3.0 0.00 0.09 0.09 59 1018.6
20260906045635 78 0 0.0 3.0 0.00 0.09 0.09 58 1018.6
20260906044515 79 0 2.0 11.0 0.00 0.09 0.09 57 1018.8
20260906043515 79 0 7.0 15.0 0.00 0.09 0.09 56 1018.5
20260906042635 79 0 8.0 15.0 0.00 0.09 0.09 55 1018.2
20260906041515 80 0 12.0 17.0 0.00 0.09 0.09 53 1018.2
20260906040515 80 0 11.0 17.0 0.00 0.09 0.09 52 1018.2
20260906035515 81 0 11.0 18.0 0.00 0.09 0.09 50 1018.3
20260906034517 81 0 9.0 15.0 0.00 0.09 0.09 48 1017.9
20260906033557 82 0 10.0 17.0 0.00 0.09 0.09 48 1017.6
20260906032637 80 0 5.0 13.0 0.00 0.09 0.09 50 1017.2
20260906031637 80 0 2.0 9.0 0.00 0.09 0.09 52 1017.2
20260906030517 81 0 1.0 2.0 0.00 0.09 0.09 49 1016.8
20260906025516 82 0 1.0 3.0 0.00 0.09 0.09 48 1016.6
20260906024557 82 0 0.0 4.0 0.00 0.09 0.09 45 1016.1
20260906023556 82 0 3.0 6.0 0.00 0.09 0.09 47 1015.9
20260906022516 82 0 3.0 10.0 0.00 0.09 0.09 47 1015.7
20260906021516 82 0 3.0 9.0 0.00 0.09 0.09 48 1015.6
20260906015516 82 0 5.0 13.0 0.00 0.09 0.09 49 1015.1
20260906014516 83 0 6.0 14.0 0.00 0.09 0.09 48 1015.0
20260906013516 79 0 5.0 13.0 0.01 0.09 0.09 54 1014.4
20260906010636 77 0.0 0.0 0.09 0.09 0.09 73 1013.8
20260906004637 79 0 4.0 9.0 0.09 0.09 0.09 59 1013.8
20260906003556 79 0 3.0 16.0 0.08 0.08 0.08 57 1013.9
20260906002556 84 0 12.0 22.0 0.08 0.08 0.08 49 1014.5
20260906001556 94 0 1.0 8.0 0.00 0.00 0.00 36 1015.6
20260906000556 94 0 1.0 4.0 0.00 0.00 0.00 29 1014.8
20260905235516 94 0 2.0 10.0 0.00 0.00 0.00 28 1014.8
20260905234556 95 0 4.0 9.0 0.00 0.00 0.00 28 1015.0
20260905232516 97 0 4.0 12.0 0.00 0.00 0.00 27 1015.3
20260905231516 97 0 3.0 8.0 0.00 0.00 0.00 26 1015.1
20260905230516 95 0 3.0 6.0 0.00 0.00 0.00 28 1015.1
20260905225556 95 0 2.0 6.0 0.00 0.00 0.00 28 1015.0
20260905224516 95 0 3.0 10.0 0.00 0.00 0.00 27 1015.1
20260905223556 96 0 5.0 12.0 0.00 0.01 0.00 27 1015.1
20260905222516 94 0 2.0 6.0 0.00 0.09 0.00 28 1014.8
20260905221516 94 0 5.0 12.0 0.00 0.12 0.00 28 1015.0
20260905220516 94 0 1.0 6.0 0.00 0.12 0.00 29 1015.2
20260905215516 95 0 3.0 11.0 0.00 0.12 0.00 28 1015.3
20260905214516 96 0 4.0 12.0 0.00 0.12 0.00 27 1015.4
20260905213516 97 0 4.0 10.0 0.00 0.12 0.00 27 1015.8
20260905212516 97 0 7.0 11.0 0.00 0.12 0.00 27 1016.0
20260905211516 96 0 6.0 12.0 0.00 0.12 0.00 27 1016.0
20260905210636 98 0 7.0 16.0 0.00 0.12 0.00 25 1016.6
20260905205516 98 0 4.0 11.0 0.00 0.12 0.00 26 1016.5
20260905204556 96 0 4.0 15.0 0.00 0.12 0.00 28 1016.5
20260905203516 96 0 5.0 14.0 0.00 0.12 0.00 28 1016.8
20260905202636 95 0 4.0 9.0 0.00 0.12 0.00 28 1016.8
20260905201515 97 0 8.0 15.0 0.00 0.12 0.00 28 1017.1
20260905200556 94 0 2.0 9.0 0.00 0.12 0.00 31 1017.0
20260905195516 96 0 3.0 9.0 0.00 0.12 0.00 29 1017.3
20260905194516 96 0 6.0 11.0 0.00 0.12 0.00 30 1017.5
20260905193556 95 0 4.0 17.0 0.00 0.12 0.00 30 1017.6
20260905192516 94 0 3.0 14.0 0.00 0.12 0.00 31 1017.5
20260905191515 94 0 4.0 13.0 0.00 0.12 0.00 32 1017.6
20260905190555 94 0 3.0 11.0 0.00 0.12 0.00 31 1017.7
20260905183515 93 0 6.0 13.0 0.00 0.12 0.00 33 1018.3
20260905182515 93 0 5.0 10.0 0.00 0.12 0.00 34 1018.4
20260905181515 92 0 6.0 12.0 0.00 0.12 0.00 34 1018.2
20260905180515 91 0 4.0 13.0 0.00 0.12 0.00 36 1018.1
20260905175515 91 0 4.0 15.0 0.00 0.12 0.00 36 1018.2
20260905174515 91 0 4.0 10.0 0.00 0.12 0.00 37 1018.4
20260905173515 90 0 4.0 9.0 0.00 0.12 0.00 37 1018.4
20260905172635 89 0 4.0 12.0 0.00 0.12 0.00 38 1018.5
20260905170635 88 0 5.0 14.0 0.00 0.12 0.00 39 1018.7
20260905165515 87 0 4.0 10.0 0.00 0.12 0.00 40 1018.5
20260905164555 87 0 3.0 8.0 0.00 0.12 0.00 41 1018.6
20260905163515 86 0 3.0 6.0 0.00 0.12 0.00 44 1018.6
20260905162515 85 0 3.0 6.0 0.00 0.12 0.00 44 1018.6
20260905161515 84 0 2.0 8.0 0.00 0.12 0.00 46 1018.6
20260905160515 83 0 2.0 8.0 0.00 0.12 0.00 47 1018.6
20260905155515 83 0 3.0 8.0 0.00 0.12 0.00 47 1018.7
20260905153555 81 0 0.0 3.0 0.00 0.12 0.00 51 1018.6
20260905152635 79 0 1.0 3.0 0.00 0.12 0.00 52 1018.4
20260905151515 78 0.0 0.0 0.00 0.12 0.00 55 1018.3
20260905150515 77 0.0 0.0 0.00 0.12 0.00 59 1018.2
20260905145515 76 0.0 0.0 0.00 0.12 0.00 61 1018.2
20260905144515 75 0 1.0 4.0 0.00 0.12 0.00 62 1018.2
20260905142555 73 0 2.0 4.0 0.00 0.12 0.00 68 1018.0
20260905141515 72 0 1.0 3.0 0.00 0.12 0.00 75 1017.9
20260905140555 71 0 0.0 2.0 0.00 0.12 0.00 78 1017.6
20260905135635 71 0.0 0.0 0.00 0.12 0.00 79 1017.6
20260905134555 70 0.0 0.0 0.00 0.12 0.00 78 1017.2
20260905132555 70 0.0 0.0 0.00 0.12 0.00 79 1017.0
20260905131555 70 0.0 0.0 0.00 0.12 0.00 78 1017.0
20260905130515 70 0.0 0.0 0.00 0.12 0.00 77 1016.9